"Pseudo-MPEC" for S511450

Created 2018 Jul 5 12:08:00 UT using Find_Orb

Click here for an explanation of pseudo-MPECs

 
 Astrometry: 
     S511450 tC2018 07 04.14689 16 33 33.56 -08 58 17.6          15.3 Rq     Y00
     S511450 tC2018 07 04.16315 16 40 35.41 -08 35 15.1          14.0 Rq     Y00
     S511450 tC2018 07 04.16344 16 40 42.81 -08 34 50.3          13.3 Rq     Y00
     S511450 tC2018 07 04.16370 16 40 49.51 -08 34 28.5          13.7 Rq     Y00
     S511450 tC2018 07 04.16398 16 40 56.73 -08 34 03.9          13.7 Rq     Y00
     S511450 tC2018 07 04.16423 16 41 03.25 -08 33 42.4          13.9 Rq     Y00
     S511450 tC2018 07 04.16457 16 41 11.67 -08 33 13.9          14.3 Rq     Y00
     S511450 tC2018 07 04.16486 16 41 19.07 -08 32 49.0          13.6 Rq     Y00
     S511450 tC2018 07 04.16629 16 41 55.73 -08 30 46.5          14.3 Rq     Y00
     S511450 tC2018 07 04.16675 16 42 07.51 -08 30 06.7          13.8 Rq     Y00
     S511450  C2018 07 04.16842 16 42 50.00 -08 27 44.1          12.9 Rq     Y00
     S511450  C2018 07 04.16958 16 43 19.41 -08 26 04.9          13.7 Rq     Y00
     S511450  C2018 07 04.17068 16 43 47.27 -08 24 30.9          13.3 Rq     Y00
     S511450 tC2018 07 04.19294 16 53 04.69 -07 52 31.6          14.1 Rq     Y00
     S511450 tC2018 07 04.19322 16 53 11.39 -07 52 07.7          13.3 Rq     Y00
     S511450 tC2018 07 04.19351 16 53 18.44 -07 51 43.5          13.2 Rq     Y00
     S511450 tC2018 07 04.19377 16 53 24.79 -07 51 21.4          13.3 Rq     Y00
     S511450 tC2018 07 04.19402 16 53 31.09 -07 50 58.8          13.3 Rq     Y00
     S511450 tC2018 07 04.19433 16 53 38.61 -07 50 32.7          14.2 Rq     Y00
     S511450 tC2018 07 04.19461 16 53 45.80 -07 50 07.5          13.6 Rq     Y00
     S511450 tC2018 07 04.19584 16 54 15.32 -07 48 23.8          14.1 Rq     Y00
     S511450  C2018 07 04.19641 16 54 29.62 -07 47 32.8          12.7 Rq     Y00
     S511450  C2018 07 04.19662 16 54 34.92 -07 47 14.7          12.6 Rq     Y00
     S511450  C2018 07 04.19683 16 54 40.20 -07 46 56.3          12.7 Rq     Y00

Station data:
(Y00) SONEAR Observatory, Oliveira  (S20.715082 W44.784960)  Brazil.
   Observers C. Jacques, E. Pimentel, J. Barros. Measurer C. Jacques. 0.28-m
   f/2.2 astrograph + CCD.

Orbital elements:  S511450
   Perigee 2018 Jul 3.806420 +/- 0.00197 TT = 19:21:14 (JD 2458303.306420)
Epoch 2018 Jul  4.0 TT = JDT 2458303.5                        Gray
M  70.992435 +/- 0.6                (J2000 equator)
n 366.733712352 +/- 1.91            Peri.  149.414481 +/- 0.22
a 41722.43208 +/- 145               Node   298.578086 +/- 0.026
e   0.62906186 +/- 0.00189          Incl.   14.095674 +/- 0.013
P1413.53m/0.982d           H 29.6   G  0.15   U 13.2  
q 15476.44095 +/- 123    Q 67968.42320 +/- 191
From 24 observations 2018 July 4 (71.9 min); mean residual 2".078
Residuals in arcseconds: 
180704 Y00 1.58+ .338+    180704 Y00 .100+ .031+    180704 Y00 .457+ .274-    
180704 Y00 .779- .205-    180704 Y00 .885+ .479+    180704 Y00 2.28+ .675+    
180704 Y00 1.19- .175-    180704 Y00 .576+ .144+    180704 Y00 .232+ .075-    
180704 Y00 .546- .586-    180704 Y00 .329- 6.5m-    180704 Y00 4.32+ .870+    
180704 Y00 .258+ .092+    180704 Y00 .983- .268-    180704 Y00 8.12- 2.01-    
180704 Y00 2.10+ .230+    180704 Y00 6.67+ 1.39+    180704 Y00 4.51- .424-    
180704 Y00 1.96- .326-    180704 Y00 3.35+ 1.05+    180704 Y00 2.69- .532-    
180704 Y00 2.15- .213-    180704 Y00 1.58+ .140+    180704 Y00 1.15- .340-    

Ephemerides (geocentric):
Date (UTC) HH   RA              Dec         delta  elong  mag " sig PA
---- -- -- --  -------------   -----------  ------ -----  --- ---- ---
2018 07 04 00  15 15 50.550   -13 14 39.65   48935 128.2 14.1 11.1  64
2018 07 04 01  15 47 35.225   -12 27 50.31   54169 135.2 14.2 22.0  86
2018 07 04 02  16 14 00.450   -11 37 57.84   58460 140.9 14.2 22.8  96
2018 07 04 03  16 37 00.021   -10 46 54.75   61889 145.7 14.2 22.5 105
2018 07 04 04  16 57 43.238   -09 55 10.22   64518 149.8 14.1 25.0 110
2018 07 04 05  17 16 56.234   -09 02 38.92   66389 153.4 14.1 32.4 108
2018 07 04 06  17 35 12.467   -08 08 58.53   67532 156.4 14.0 46.7 102
2018 07 04 07  17 52 58.489   -07 13 35.80   67964 158.8 14.0 71.0  95
2018 07 04 08  18 10 37.571   -06 15 47.52   67692 160.6 13.9  109  90
2018 07 04 09  18 28 32.420   -05 14 38.59   66711 161.4 13.9  166  86
2018 07 04 10  18 47 07.789   -04 08 57.51   65007 161.2 13.8  248  83
2018 07 04 11  19 06 53.685   -02 57 08.38   62554 159.8 13.8  369  81
2018 07 04 12  19 28 30.260   -01 36 57.47   59312 157.1 13.7  548  79
2018 07 04 13  19 52 56.477   -00 05 09.89   55223 153.0 13.7  823  78
2018 07 04 14  20 21 47.542   +01 43 12.00   50212 147.3 13.7 1266  78
2018 07 04 15  20 57 54.621   +03 56 03.03   44180 139.5 13.6 2040  78
2018 07 04 16  21 47 10.222   +06 46 06.25   37015 128.3 13.5 3567  78
2018 07 04 17  23 04 06.178   +10 28 37.49   28683 110.3 13.5 7187  81
2018 07 04 18  01 32 46.519   +14 01 53.34   19861  75.9 14.1 297'  89
2018 07 04 19  06 30 58.860   +05 05 51.72   15553  18.6 21?? 522' 103
2018 07 04 20  10 48 03.354   -09 47 44.07   21660  65.8 14.9 282' 100
2018 07 04 21  12 54 47.743   -13 38 13.83   30548  95.3 14.2 9035  93
2018 07 04 22  14 06 33.930   -14 04 12.63   38644 111.7 14.1 5854  89
2018 07 04 23  14 54 42.239   -13 37 11.84   45559 122.6 14.2 4299  86
2018 07 05 00  15 30 46.248   -12 54 00.04   51365 130.6 14.2 3420  84
2018 07 05 01  15 59 51.767   -12 05 21.68   56171 137.0 14.2 2875  83
2018 07 05 02  16 24 35.646   -11 14 46.94   60073 142.2 14.2 2521  82
2018 07 05 03  16 46 28.275   -10 23 21.52   63143 146.7 14.2 2288  81
2018 07 05 04  17 06 26.966   -09 31 15.73   65433 150.6 14.1 2139  80
2018 07 05 05  17 25 11.335   -08 38 15.37   66980 154.0 14.1 2056  79
2018 07 05 06  17 43 11.249   -07 43 52.85   67808 156.9 14.0 2030  79
2018 07 05 07  18 00 51.443   -06 47 30.56   67930 159.1 14.0 2057  78
2018 07 05 08  18 18 34.627   -05 48 20.41   67346 160.7 13.9 2143  78
2018 07 05 09  18 36 44.076   -04 45 20.79   66049 161.3 13.8 2296  77
2018 07 05 10  18 55 46.396   -03 37 10.72   64019 160.8 13.8 2536  77
2018 07 05 11  19 16 15.313   -02 21 59.78   61224 159.1 13.8 2899  77
2018 07 05 12  19 38 57.862   -00 57 11.08   57616 155.9 13.7 3447  76
2018 07 05 13  20 05 06.013   +00 41 08.67   53132 151.3 13.7 4298  76
2018 07 05 14  20 36 41.323   +02 39 03.08   47684 144.9 13.6 5699  77
2018 07 05 15  21 17 34.772   +05 06 19.11   41165 135.9 13.6 8231  77
2018 07 05 16  22 16 18.560   +08 17 56.62   33476 122.4 13.5 225'  79
2018 07 05 17  23 56 07.350   +12 19 13.04   24734  99.1 13.6 454'  83
2018 07 05 18  03 26 44.033   +12 59 35.55   16779  51.0 15??  17d  95
2018 07 05 19  08 45 32.402   -03 11 51.45   17334  36.8 17?? 872' 104
2018 07 05 20  11 54 34.113   -12 16 33.38   25593  80.4 14.4 414'  97
2018 07 05 21  13 30 45.629   -14 01 00.68   34262 102.6 14.2 241'  91
2018 07 05 22  14 29 55.441   -13 55 15.75   41839 116.0 14.2 9947  88
2018 07 05 23  15 11 50.405   -13 18 43.42   48251 125.5 14.2 7594  85
2018 07 06 00  15 44 23.658   -12 32 18.22   53603 132.7 14.2 6210  84
2018 07 06 01  16 11 19.318   -11 42 29.44   58000 138.5 14.2 5336  82